CZ-3B DEB, 40164

Orbit data source: Space-Track

CZ-3B DEB, 40164 is space debris in HEO originally from a launch on Sat, 04 Sep 2010 UTC launched from the Xichang Space Center, China (XSC). Debris objects in space refer to the collection of defunct objects orbiting the Earth. Examples of debris include non-operational satellites, rocket bodies, and fragments generated from explosions, collisions, or faulty payload assembly.

Loading next visibility...
CZ-3B DEB details
Identifier
40164, 2010-042R
Orbit
HEO
Last TLE update1 day ago
Origin
Flag of CNCASC (CN / PRC)
ManufacturerCALT
MissionSpacecraft
Bus & MotorUnknown
MassUnknown
Launch date (UTC)
2010-09-04 (14 years ago)
Launch vehicleUnknown
Launch site
Xichang Space Center, China (XSC)
Object type
Payload
Rocket body
Debris
Shape & HBRUnknown
Radar Cross SectionMedium (>0.1 m² and <1 m²)

Expand to show TLE details & history

TLE from 1 day ago
0 CZ-3B DEB
1 40164U 10042R   24360.67873535 -.00000034  00000-0  00000-0 0  9999
2 40164  27.6430   7.0993 7277243 164.7442   0.7710  1.89862065 77034
Epoch: 2024-12-25T16:17Z
Definitive object data (Epoch: 2024-12-25T16:17:22.734Z)
Latitude3.64172°
Longitude-158.85161°
Altitude1,181.562 km
Speed9.538 km/s
True Right ascension12h 00m 38s
True Declination3° 37' 16"
Sunlit
Object was in daylight at TLE epoch
Visualization TLE readout
Latitude-9.38371°
Longitude9.40113°
Altitude40,553.303 km
Speed1.587 km/s
Apparent Right ascension23h 19m 36s
Apparent Declination-15° 45' 03"
Sunlit
Object is in daylight
Visualization observer readout
Local Sidereal Time22:22:50
Azimuth163.7° S
Elevation32.784°
Doppler factor1
Orbital elements
Apogee altitude41,225.19 km
Perigee altitude1,123.771 km
Semi-major axis27,552.618 km
Eccentricity0.7277243
Inclination27.643°
RAAN7.0993°
Arg. of periapsis164.7442°
True anomaly7.11764°
Mean anomaly0.771°
Eccentric anomaly2.82862°
Mean motion0.47457 °/min
BSTARUnknown
Orbital period758.58 mins
Loading maneuver chart data...
Loading historical data...
Loading historical data...
Loading historical data...
Loading historical data...
Loading historical data...
Loading historical data...
Loading historical data...

CZ-3B DEB Visibility forecast

Observer location: undefined°, undefined

Span
Click to sort rows by Start time (UTC) header in descending order
Start Az.
Max El. time (UTC)
Max El. Az.
Max El.
End time (UTC)
End Az.
417 mins2024-12-26 22:59:35.508Z163.705° S2024-12-27 05:36:35.508Z179.536° S42.121°2024-12-27 05:56:35.508Z101.115° ESE
163 mins2024-12-27 20:16:35.508Z169.482° S2024-12-27 22:59:35.508Z175.904° S26.252°2024-12-27 22:59:35.508Z175.904° S
|